Find Himawari-7

NORAD ID: 28937 Int'l Des: 2006-004 Owner: JCAB/JMA Country: J operational
HEOCIRCULAR

リアルタイム位置

3D地球を読み込み中...

Himawari-7について

説明を読み込み中...

次回通過

Passes for default location (London). Set your location on the main map for personalized predictions.

高度履歴

Loading altitude history...

軌道要素

1 28937U 06004A 26134.90669431 .00000008 00000-0 00000-0 0 9991
2 28937 5.6979 73.4461 0006240 172.3221 41.2851 0.99073725 73892
Epoch: May 14, 2026 • Age: 32 hours

現在のステータス

高度 36150.2 km
速度 3.06 km/s
衛星直下点 -2.99°S, 82.41°E
打ち上げ日 Feb 18, 2006
運用期間 20.2 years
タイプ weather

技術仕様

分類 Payload
質量 4650.00 kg
乾燥質量 1700.00 kg
総質量 4650.00 kg
長さ 6.00 m
直径 4.00 m
スパン 30.00 m
形状 Box + Pan + Ant
製造者 MELCO
バスタイプ DS-2000
フェーズステータス In Orbit
所有者/国 JCAB/JMA/J

Most Searched